Regional Weather Roundup
Issued by NWS Mobile, AL

Home | Current Version | Previous Version | Text Only | Print | Product List | Glossary On
Versions: 1 2 3 4 5 6 7 8 9 10 11 12 13 14 15 16 17 18 19 20 21 22 23 24 25 26 27
000
ASUS44 KMOB 290812
RWRMOB
REGIONAL WEATHER ROUNDUP
NATIONAL WEATHER SERVICE MOBILE AL
300 AM CDT SUN MAY 29 2016

NOTE: "FAIR" INDICATES FEW OR NO CLOUDS BELOW 12,000 FEET WITH NO
      SIGNIFICANT WEATHER AND/OR OBSTRUCTIONS TO VISIBILITY.

  * THESE STATIONS ARE PART OF THE UNIVERSITY OF SOUTH ALABAMA
    MESONET AND ARE NOT UNDER NWS OR FAA QUALITY CONTROL.

ALZ061>064-290900-
COASTAL ALABAMA

CITY           SKY/WX    TMP DP  RH WIND       PRES   REMARKS
MOBILE REG APT CLEAR     66  66 100 CALM      30.06F
BROOKLEY FIELD CLEAR     70  68  93 NW3       30.06F
USA CAMPUS*    NOT AVBL
DOG RIVER*     NOT AVBL


CITY           SKY/WX    TMP DP  RH WIND       PRES   REMARKS
MOUNT VERNON*  NOT AVBL
SARALAND*      NOT AVBL
BAY MINETTE*   NOT AVBL
LOXLEY*        NOT AVBL
ROBERTSDALE*   NOT AVBL
FAIRHOPE*      NOT AVBL
ELBERTA*       NOT AVBL
FOLEY*         NOT AVBL
GRAND BAY*     NOT AVBL
DAUPHIN ISLND* NOT AVBL
BON SCOUR NWR* NOT AVBL
GULF SHORES    CLEAR     66  66 100 CALM      30.05S FOG

$$

ALZ051>060-290900-
INTERIOR SOUTHWEST AND SOUTH CENTRAL ALABAMA

CITY           SKY/WX    TMP DP  RH WIND       PRES   REMARKS
GREENVILLE     CLEAR     70  67  90 W5        30.07R
EVERGREEN      CLEAR     67  66  97 CALM      30.07S
CASTLEBERRY*   NOT AVBL
ATMORE*        NOT AVBL
DIXIE*         NOT AVBL
ANDALUSIA/OPP  CLEAR     74  69  85 CALM      30.06F
ANDALUSIA*     NOT AVBL
FLORALA APT    CLEAR     70  67  90 VRB3      30.07F
FLORALA*       NOT AVBL

$$

FLZ001>006-290900-
WESTERN FLORIDA PANHANDLE

CITY           SKY/WX    TMP DP  RH WIND       PRES   REMARKS
PENSACOLA      CLEAR     72  67  84 N5        30.05S
NAS PENSACOLA  NOT AVBL
MILTON         PTCLDY    68  67  96 NW3       30.06S
WHTNG S FIELD  NOT AVBL


CITY           SKY/WX    TMP DP  RH WIND       PRES   REMARKS
WALNUT HILL*   NOT AVBL
JAY*           NOT AVBL
DUKE FIELD     CLEAR     66  63  90 W3        30.04F
CRESTVIEW      CLEAR     65  63  93 CALM      30.06F
VALPARAISO     PTCLDY    69  64  84 NW3       30.04F
DESTIN         PTCLDY    76  69  79 CALM      30.04F

$$

MSZ076-079-290900-
INTERIOR SOUTHEAST MISSISSIPPI

CITY           SKY/WX    TMP DP  RH WIND       PRES   REMARKS
LEAKESVILLE*   NOT AVBL
AGRICOLA*      NOT AVBL

$$

MARINE OBSERVATIONS

STATION/POSITION TIME  TEMP    WIND        PRES    WAVE
                       AIR SEA DIR/SP/G            HT/PER
                 (UTC) (F)     (DEG/KT/KT) (MB)    (FT/S)
PASCAGOULA       0700   73     350/  5/  6 1017.0F
PETIT BOIS ISLND 0700   76     130/  1/  2 1017.9F
GRAND BAY        0600   73     350/  3     1020.0S
KATRINA CUT      0700   78     300/  1     1018.3F
CEDAR POINT      0700   74     360/  6     1017.3
E DAUPHIN ISLAND 0700   78      CALM  /  1 1017.3F
MIDDLE BAY LIGHT 0700   77     330/  9     1017.6F
USCG MOBILE BAY  0700   73 80  320/  3/  3 1018.3F
STATE DOCKS      0700   73 81              1017.8F
MEAHER PARK      0700   72      20/  2     1017.6F
WEEKS BAY        0600   69                   N/A
FORT MORGAN      0700   78        CALM     1017.1F
12 S ORANGE BCH  0750   78 80     CALM     1016.6F   2/ 5
PENSACOLA BAY    0700      81  340/  2/  3 1017.9F
64 S DAUPHIN ISL 0700   78 79  130/  4/  6 1017.1F

$$

SELECTED LOCATIONS ACROSS THE REGION

CITY           SKY/WX    TMP DP  RH WIND       PRES   REMARKS
NEW ORLEANS    PTCLDY    72  69  90 E3        30.03F
GULFPORT       CLEAR     69  68  96 CALM      30.03F
PASCAGOULA AP  FOG       63  62  97 N3        30.04F VSB 1/2
PASCAGOULA*    NOT AVBL
HATTIESBURG    CLEAR     66  64  93 CALM      30.06F
LAUREL         CLEAR     63  59  88 CALM      30.06F
MERIDIAN       CLEAR     67  62  84 CALM      30.06F
JACKSON        CLEAR     67  65  93 CALM      30.05F
MONTGOMERY     CLEAR     71  67  87 CALM      30.07S
TROY           CLEAR     69  67  93 CALM      30.07F
KINSTON*       NOT AVBL
GENEVA*        NOT AVBL
ASHFORD*       NOT AVBL
DOTHAN         CLEAR     71  67  87 N5        30.08F
PANAMA CITY    PTCLDY    69  67  93 NW6       30.02F

$$





USA.gov is the U.S. government's official web portal to all federal, state and local government web resources and services.